N6OIM Weather Reports


Display with metric or nautical units.
time (UTC)temp
F
wind
direction
speed
MPH
gust
MPH
rain 1hr
in
rain 24hr
in
rain mn
in
humidity
%
barometer
mb
20260508051820 69 144 0.0 0.0 0.00 0.00 0.00 69 1014.1
20260508051329 69 144 0.0 0.0 0.00 0.00 0.00 69 1014.0
20260508050839 70 144 0.0 0.0 0.00 0.00 0.00 68 1014.0
20260508050345 70 144 0.0 0.0 0.00 0.00 0.00 68 1014.0
20260508045817 71 143 0.0 0.0 0.00 0.00 0.00 67 1014.0
20260508045328 71 202 0.0 0.0 0.00 0.00 0.00 66 1014.0
20260508044818 71 202 0.0 0.0 0.00 0.00 0.00 65 1013.9
20260508044329 72 202 0.0 0.0 0.00 0.00 0.00 64 1013.8
20260508043822 72 202 0.0 0.0 0.00 0.00 0.00 63 1013.7
20260508043330 72 202 0.0 0.0 0.00 0.00 0.00 63 1013.7
20260508042818 73 202 0.0 0.0 0.00 0.00 0.00 63 1013.6
20260508042327 73 202 0.0 0.0 0.00 0.00 0.00 63 1013.6
20260508041818 73 202 0.0 0.0 0.00 0.00 0.00 63 1013.5
20260508041325 74 202 0.0 0.0 0.00 0.00 0.00 63 1013.5
20260508040834 74 202 0.0 0.0 0.00 0.00 0.00 62 1013.4
20260508040322 74 202 0.0 0.0 0.00 0.00 0.00 61 1013.4
20260508035832 75 202 0.0 0.0 0.00 0.00 0.00 61 1013.3
20260508035325 75 197 0.0 0.0 0.00 0.00 0.00 60 1013.3
20260508034834 76 215 0.0 0.0 0.00 0.00 0.00 60 1013.3
20260508034322 76 215 0.0 0.0 0.00 0.00 0.00 59 1013.0
20260508033831 77 215 0.0 0.0 0.00 0.00 0.00 59 1012.9
20260508033323 77 209 0.0 0.0 0.00 0.00 0.00 59 1013.0
20260508032836 78 209 0.0 0.0 0.00 0.00 0.00 58 1012.9
20260508032323 78 198 0.0 0.0 0.00 0.00 0.00 58 1012.9
20260508031831 79 187 0.0 0.0 0.00 0.00 0.00 57 1012.8
20260508031322 80 186 0.0 0.0 0.00 0.00 0.00 57 1012.8
20260508030817 80 171 0.0 0.0 0.00 0.00 0.00 56 1012.8
20260508030325 81 171 0.0 0.0 0.00 0.00 0.00 56 1012.7
20260508025834 81 171 0.0 0.0 0.00 0.00 0.00 55 1012.6
20260508025321 81 171 0.0 0.0 0.00 0.00 0.00 54 1012.5
20260508024830 82 187 0.0 0.0 0.00 0.00 0.00 53 1012.5
20260508024318 82 187 0.0 0.0 0.00 0.00 0.00 53 1012.4
20260508023827 82 187 0.0 0.0 0.00 0.00 0.00 52 1012.4
20260508023335 83 187 0.0 0.0 0.00 0.00 0.00 51 1012.5
20260508022823 83 187 0.0 0.0 0.00 0.00 0.00 50 1012.5
20260508022316 83 187 0.0 0.0 0.00 0.00 0.00 50 1012.5
20260508021828 83 187 0.0 0.0 0.00 0.00 0.00 49 1012.6
20260508021316 84 188 0.0 0.0 0.00 0.00 0.00 48 1012.6
20260508020828 84 196 0.0 0.0 0.00 0.00 0.00 48 1012.5
20260508020335 85 193 0.0 0.0 0.00 0.00 0.00 47 1012.4
20260508015823 85 225 0.0 0.0 0.00 0.00 0.00 46 1012.5
20260508015331 85 225 0.0 0.0 0.00 0.00 0.00 45 1012.6
20260508014821 86 239 0.0 0.0 0.00 0.00 0.00 45 1012.5
20260508014329 86 238 0.0 0.0 0.00 0.00 0.00 43 1012.5
20260508013823 87 238 0.0 0.0 0.00 0.00 0.00 43 1012.6
20260508013332 87 221 0.0 0.0 0.00 0.00 0.00 43 1012.6
20260508012820 88 221 0.0 0.0 0.00 0.00 0.00 42 1012.6
20260508012329 88 252 0.0 0.0 0.00 0.00 0.00 42 1012.7
20260508011818 88 260 0.0 0.0 0.00 0.00 0.00 42 1012.7
20260508011326 88 246 0.0 0.0 0.00 0.00 0.00 41 1012.7
20260508010834 89 244 0.0 0.0 0.00 0.00 0.00 42 1012.7
20260508010322 89 244 0.0 0.0 0.00 0.00 0.00 43 1012.7
20260508005832 89 242 0.0 0.0 0.00 0.00 0.00 41 1012.7
20260508005324 89 244 0.0 0.0 0.00 0.00 0.00 41 1012.8
20260508004834 89 248 0.0 0.0 0.00 0.00 0.00 42 1012.7
20260508004323 89 268 0.0 0.0 0.00 0.00 0.00 42 1012.8
20260508003833 88 268 0.0 0.0 0.00 0.00 0.00 43 1012.8
20260508003321 88 268 0.0 0.0 0.00 0.00 0.00 42 1012.9
20260508002830 88 268 0.0 0.0 0.00 0.00 0.00 42 1013.0
20260508002323 88 264 0.0 0.0 0.00 0.00 0.00 43 1013.0
20260508001831 88 311 0.0 0.0 0.00 0.00 0.00 43 1013.0
20260508001326 88 264 0.0 0.0 0.00 0.00 0.00 42 1013.0
20260508000836 88 264 0.0 0.0 0.00 0.00 0.00 42 1013.0
20260508000324 88 245 0.0 0.0 0.00 0.00 0.00 45 1013.0
20260507235834 88 244 0.0 0.0 0.00 0.00 0.00 45 1012.9
20260507235326 87 286 0.0 0.0 0.00 0.00 0.00 44 1012.9
20260507234836 87 245 0.0 0.0 0.00 0.00 0.00 43 1012.9
20260507234324 87 245 0.0 0.0 0.00 0.00 0.00 43 1012.9
20260507233838 87 240 0.0 0.0 0.00 0.00 0.00 43 1012.9
20260507233326 87 203 0.0 0.0 0.00 0.00 0.00 44 1012.9
20260507232820 87 200 0.0 0.0 0.00 0.00 0.00 43 1013.0
20260507232331 87 200 0.0 0.0 0.00 0.00 0.00 42 1013.0
20260507231822 86 207 0.0 0.0 0.00 0.00 0.00 44 1013.2
20260507231331 86 207 0.0 0.0 0.00 0.00 0.00 43 1013.3
20260507230821 86 252 0.0 0.0 0.00 0.00 0.00 45 1013.3
20260507230330 86 252 0.0 0.0 0.00 0.00 0.00 45 1013.3
20260507225819 86 252 0.0 0.0 0.00 0.00 0.00 47 1013.4
20260507225330 86 281 0.0 0.0 0.00 0.00 0.00 45 1013.5
20260507224822 85 245 0.0 0.0 0.00 0.00 0.00 49 1013.5
20260507224332 85 245 0.0 0.0 0.00 0.00 0.00 47 1013.6
20260507223820 85 245 0.0 0.0 0.00 0.00 0.00 47 1013.8
20260507223329 85 245 0.0 0.0 0.00 0.00 0.00 46 1013.9
20260507222817 85 242 0.0 0.0 0.00 0.00 0.00 48 1014.0
20260507222324 84 200 0.0 0.0 0.00 0.00 0.00 49 1014.0
20260507221833 84 200 0.0 0.0 0.00 0.00 0.00 48 1014.0
20260507221321 84 244 0.0 0.0 0.00 0.00 0.00 47 1014.1
20260507220829 83 334 0.0 0.0 0.00 0.00 0.00 49 1014.2
20260507220321 83 333 0.0 0.0 0.00 0.00 0.00 50 1014.4
20260507215831 83 321 0.0 0.0 0.00 0.00 0.00 50 1014.5
20260507215318 82 321 0.0 0.0 0.00 0.00 0.00 48 1014.4
20260507214828 82 238 0.0 0.0 0.00 0.00 0.00 47 1014.5
20260507214335 82 217 0.0 0.0 0.00 0.00 0.00 49 1014.6
20260507213824 82 218 0.0 0.0 0.00 0.00 0.00 48 1014.7
20260507213331 82 188 0.0 0.0 0.00 0.00 0.00 50 1014.7
20260507212821 81 69 0.0 0.0 0.00 0.00 0.00 51 1014.8
20260507212328 81 68 0.0 0.0 0.00 0.00 0.00 49 1014.9
20260507211822 81 13 0.0 0.0 0.00 0.00 0.00 50 1015.1
20260507211331 81 5 0.0 0.0 0.00 0.00 0.00 50 1015.1
20260507210820 80 360 0.0 0.0 0.00 0.00 0.00 51 1015.1
20260507210332 80 355 0.0 0.0 0.00 0.00 0.00 51 1015.1
20260507205820 79 355 0.0 0.0 0.00 0.00 0.00 53 1015.1
20260507205331 79 351 0.0 0.0 0.00 0.00 0.00 52 1015.2
20260507204819 79 5 0.0 0.0 0.00 0.00 0.00 55 1015.3
20260507204328 79 5 0.0 0.0 0.00 0.00 0.00 52 1015.4
20260507203817 78 5 0.0 0.0 0.00 0.00 0.00 54 1015.5
20260507203330 78 5 0.0 0.0 0.00 0.00 0.00 54 1015.5
20260507202819 78 9 0.0 0.0 0.00 0.00 0.00 54 1015.8
20260507202331 78 11 0.0 0.0 0.00 0.00 0.00 55 1015.8
20260507201819 78 12 0.0 0.0 0.00 0.00 0.00 57 1015.8
20260507201327 77 9 0.0 0.0 0.00 0.00 0.00 55 1015.7
20260507200817 77 5 0.0 0.0 0.00 0.00 0.00 56 1015.8
20260507200325 77 350 0.0 0.0 0.00 0.00 0.00 56 1015.7
20260507195818 77 252 0.0 0.0 0.00 0.00 0.00 57 1015.8
20260507195327 77 254 0.0 0.0 0.00 0.00 0.00 55 1015.9
20260507194820 76 199 0.0 0.0 0.00 0.00 0.00 56 1015.9
20260507194328 76 229 0.0 0.0 0.00 0.00 0.00 58 1016.0
20260507193818 76 333 0.0 0.0 0.00 0.00 0.00 60 1016.0
20260507193326 75 333 0.0 0.0 0.00 0.00 0.00 59 1016.1
20260507192836 75 328 0.0 0.0 0.00 0.00 0.00 58 1016.3
20260507192324 75 329 0.0 0.0 0.00 0.00 0.00 58 1016.3
20260507191834 75 306 0.0 0.0 0.00 0.00 0.00 59 1016.4
20260507191322 75 251 0.0 0.0 0.00 0.00 0.00 60 1016.4
20260507190831 75 249 0.0 0.0 0.00 0.00 0.00 60 1016.4
20260507190322 75 223 0.0 0.0 0.00 0.00 0.00 61 1016.4
20260507185830 74 251 0.0 0.0 0.00 0.00 0.00 61 1016.4
20260507185318 74 254 0.0 0.0 0.00 0.00 0.00 62 1016.5
20260507184829 74 255 0.0 0.0 0.00 0.00 0.00 62 1016.5
20260507184336 73 252 0.0 0.0 0.00 0.00 0.00 61 1016.6
20260507183824 73 256 0.0 0.0 0.00 0.00 0.00 61 1016.6
20260507183333 73 256 0.0 0.0 0.00 0.00 0.00 62 1016.7
20260507182823 73 256 0.0 0.0 0.00 0.00 0.00 62 1016.8
20260507182331 73 252 0.0 0.0 0.00 0.00 0.00 62 1016.8
20260507181824 72 250 0.0 0.0 0.00 0.00 0.00 63 1016.8
20260507181332 72 252 0.0 0.0 0.00 0.00 0.00 63 1016.8
20260507180825 72 245 0.0 0.0 0.00 0.00 0.00 64 1016.8
20260507180334 72 242 0.0 0.0 0.00 0.00 0.00 64 1016.7
20260507175822 72 243 0.0 0.0 0.00 0.00 0.00 64 1016.7
20260507175331 71 241 0.0 0.0 0.00 0.00 0.00 64 1016.6
20260507174820 71 241 0.0 0.0 0.00 0.00 0.00 65 1016.7
20260507174327 71 241 0.0 0.0 0.00 0.00 0.00 67 1016.8
20260507173819 70 237 0.0 0.0 0.00 0.00 0.00 67 1016.8
20260507173327 70 237 0.0 0.0 0.00 0.00 0.00 68 1016.8
20260507172835 69 237 0.0 0.0 0.00 0.00 0.00 68 1016.9
20260507172323 69 236 0.0 0.0 0.00 0.00 0.00 67 1016.9
20260507171832 69 236 0.0 0.0 0.00 0.00 0.00 68 1016.9
20260507171324 69 122 0.0 0.0 0.00 0.00 0.00 69 1016.9
20260507170833 68 66 0.0 0.0 0.00 0.00 0.00 70 1017.0
20260507170320 68 28 0.0 0.0 0.00 0.00 0.00 71 1017.0
20260507165830 67 28 0.0 0.0 0.00 0.00 0.00 71 1017.0
20260507165323 67 28 0.0 0.0 0.00 0.00 0.00 72 1017.1
20260507164833 67 28 0.0 0.0 0.00 0.00 0.00 72 1017.1
20260507164321 67 28 0.0 0.0 0.00 0.00 0.00 73 1017.1
20260507163830 66 28 0.0 0.0 0.00 0.00 0.00 74 1017.1
20260507163319 66 28 0.0 0.0 0.00 0.00 0.00 74 1017.1
20260507162831 66 28 0.0 0.0 0.00 0.00 0.00 75 1017.1
20260507162319 65 28 0.0 0.0 0.00 0.00 0.00 75 1017.2
20260507161828 65 28 0.0 0.0 0.00 0.00 0.00 76 1017.3
20260507161316 64 28 0.0 0.0 0.00 0.00 0.00 77 1017.3
20260507160831 64 28 0.0 0.0 0.00 0.00 0.00 78 1017.3
20260507160319 64 26 0.0 0.0 0.00 0.00 0.00 79 1017.3
20260507155827 63 26 0.0 0.0 0.00 0.00 0.00 79 1017.3
20260507155333 63 25 0.0 0.0 0.00 0.00 0.00 80 1017.3
20260507154822 63 26 0.0 0.0 0.00 0.00 0.00 80 1017.3
20260507154329 62 26 0.0 0.0 0.00 0.00 0.00 81 1017.3
20260507153818 62 26 0.0 0.0 0.00 0.00 0.00 82 1017.4
20260507153329 62 26 0.0 0.0 0.00 0.00 0.00 83 1017.3
20260507152820 61 19 0.0 0.0 0.00 0.00 0.00 84 1017.3
20260507152332 61 20 0.0 0.0 0.00 0.00 0.00 86 1017.3
20260507151820 60 20 0.0 0.0 0.00 0.00 0.00 87 1017.3
20260507151329 60 11 0.0 0.0 0.00 0.00 0.00 87 1017.3
20260507150819 60 11 0.0 0.0 0.00 0.00 0.00 88 1017.3
20260507150328 59 12 0.0 0.0 0.00 0.00 0.00 88 1017.3
20260507145818 59 12 0.0 0.0 0.00 0.00 0.00 88 1017.3
20260507145326 58 11 0.0 0.0 0.00 0.00 0.00 89 1017.3
20260507144835 58 11 0.0 0.0 0.00 0.00 0.00 89 1017.3
20260507144322 58 11 0.0 0.0 0.00 0.00 0.00 89 1017.3
20260507143815 57 11 0.0 0.0 0.00 0.00 0.00 89 1017.3
20260507143327 57 12 0.0 0.0 0.00 0.00 0.00 89 1017.3
20260507142835 56 11 0.0 0.0 0.00 0.00 0.00 88 1017.2
20260507142323 56 12 0.0 0.0 0.00 0.00 0.00 88 1017.2
20260507141834 56 12 0.0 0.0 0.00 0.00 0.00 88 1017.1
20260507141322 56 12 0.0 0.0 0.00 0.00 0.00 88 1017.1
20260507140831 56 11 0.0 0.0 0.00 0.00 0.00 88 1017.1
20260507140318 56 12 0.0 0.0 0.00 0.00 0.00 88 1017.0
20260507135828 56 11 0.0 0.0 0.00 0.00 0.00 87 1017.0
20260507135321 56 11 0.0 0.0 0.00 0.00 0.00 87 1016.9
20260507134830 56 12 0.0 0.0 0.00 0.00 0.00 87 1016.8
20260507134319 56 12 0.0 0.0 0.00 0.00 0.00 87 1016.8
20260507133829 56 11 0.0 0.0 0.00 0.00 0.00 87 1016.8
20260507133318 56 12 0.0 0.0 0.00 0.00 0.00 87 1016.8
20260507132825 56 12 0.0 0.0 0.00 0.00 0.00 87 1016.6
20260507132336 56 12 0.0 0.0 0.00 0.00 0.00 87 1016.6
20260507131824 56 12 0.0 0.0 0.00 0.00 0.00 87 1016.6
20260507131332 56 11 0.0 0.0 0.00 0.00 0.00 86 1016.5
20260507130825 56 11 0.0 0.0 0.00 0.00 0.00 86 1016.5
20260507130333 56 12 0.0 0.0 0.00 0.00 0.00 86 1016.6
20260507125821 56 11 0.0 0.0 0.00 0.00 0.00 86 1016.5
20260507125329 56 12 0.0 0.0 0.00 0.00 0.00 86 1016.5
20260507124817 56 12 0.0 0.0 0.00 0.00 0.00 86 1016.5
20260507124327 56 12 0.0 0.0 0.00 0.00 0.00 86 1016.5
20260507123837 56 12 0.0 0.0 0.00 0.00 0.00 86 1016.5
20260507123325 56 11 0.0 0.0 0.00 0.00 0.00 86 1016.4
20260507122818 56 12 0.0 0.0 0.00 0.00 0.00 86 1016.3
20260507122326 56 11 0.0 0.0 0.00 0.00 0.00 86 1016.3
20260507121835 56 12 0.0 0.0 0.00 0.00 0.00 86 1016.4
20260507121323 56 11 0.0 0.0 0.00 0.00 0.00 86 1016.4
20260507120832 57 12 0.0 0.0 0.00 0.00 0.00 86 1016.4
20260507120320 57 11 0.0 0.0 0.00 0.00 0.00 86 1016.4
20260507115829 57 12 0.0 0.0 0.00 0.00 0.00 86 1016.4
20260507115316 57 12 0.0 0.0 0.00 0.00 0.00 86 1016.5
20260507114828 57 11 0.0 0.0 0.00 0.00 0.00 86 1016.4
20260507114320 57 12 0.0 0.0 0.00 0.00 0.00 86 1016.4
20260507113826 57 12 0.0 0.0 0.00 0.00 0.00 85 1016.4
20260507113318 57 12 0.0 0.0 0.00 0.00 0.00 85 1016.5
20260507112826 57 12 0.0 0.0 0.00 0.00 0.00 85 1016.5
20260507112335 57 12 0.0 0.0 0.00 0.00 0.00 85 1016.4
20260507111825 57 11 0.0 0.0 0.00 0.00 0.00 85 1016.5
20260507111333 57 12 0.0 0.0 0.00 0.00 0.00 85 1016.5
20260507110822 57 12 0.0 0.0 0.00 0.00 0.00 85 1016.4
20260507110330 57 12 0.0 0.0 0.00 0.00 0.00 84 1016.3
20260507105823 57 11 0.0 0.0 0.00 0.00 0.00 84 1016.4
20260507105335 57 12 0.0 0.0 0.00 0.00 0.00 84 1016.4
20260507104825 57 12 0.0 0.0 0.00 0.00 0.00 83 1016.3
20260507104333 57 11 0.0 0.0 0.00 0.00 0.00 83 1016.4
20260507103823 57 11 0.0 0.0 0.00 0.00 0.00 83 1016.4
20260507103332 58 12 0.0 0.0 0.00 0.00 0.00 83 1016.3
20260507102824 58 12 0.0 0.0 0.00 0.00 0.00 83 1016.4
20260507102331 58 12 0.0 0.0 0.00 0.00 0.00 83 1016.3
20260507101820 58 12 0.0 0.0 0.00 0.00 0.00 83 1016.4
20260507101332 58 12 0.0 0.0 0.00 0.00 0.00 83 1016.3
20260507100825 58 12 0.0 0.0 0.00 0.00 0.00 83 1016.4
20260507100334 58 11 0.0 0.0 0.00 0.00 0.00 83 1016.3
20260507095822 58 12 0.0 0.0 0.00 0.00 0.00 83 1016.3
20260507095330 58 12 0.0 0.0 0.00 0.00 0.00 82 1016.4
20260507094821 58 12 0.0 0.0 0.00 0.00 0.00 82 1016.3
20260507094330 59 12 0.0 0.0 0.00 0.00 0.00 82 1016.3
20260507093818 59 12 0.0 0.0 0.00 0.00 0.00 82 1016.2
20260507093331 59 11 0.0 0.0 0.00 0.00 0.00 82 1016.3
20260507092824 59 11 0.0 0.0 0.00 0.00 0.00 82 1016.4
20260507092332 59 12 0.0 0.0 0.00 0.00 0.00 82 1016.4
20260507091820 59 11 0.0 0.0 0.00 0.00 0.00 82 1016.4
20260507091327 59 12 0.0 0.0 0.00 0.00 0.00 82 1016.4
20260507090836 60 12 0.0 0.0 0.00 0.00 0.00 82 1016.4
20260507090325 60 12 0.0 0.0 0.00 0.00 0.00 82 1016.5
20260507085833 60 12 0.0 0.0 0.00 0.00 0.00 82 1016.5
20260507085321 60 11 0.0 0.0 0.00 0.00 0.00 82 1016.4
20260507084830 60 12 0.0 0.0 0.00 0.00 0.00 82 1016.5
20260507084322 60 12 0.0 0.0 0.00 0.00 0.00 82 1016.4
20260507083832 60 11 0.0 0.0 0.00 0.00 0.00 82 1016.5
20260507083320 60 12 0.0 0.0 0.00 0.00 0.00 81 1016.5
20260507082829 60 12 0.0 0.0 0.00 0.00 0.00 81 1016.4
20260507082319 61 12 0.0 0.0 0.00 0.00 0.00 81 1016.5
20260507081831 61 12 0.0 0.0 0.00 0.00 0.00 81 1016.5
20260507081319 61 11 0.0 0.0 0.00 0.00 0.00 81 1016.5
20260507080831 61 12 0.0 0.0 0.00 0.00 0.00 81 1016.6
20260507080323 61 12 0.0 0.0 0.00 0.00 0.00 81 1016.6
20260507075832 61 12 0.0 0.0 0.00 0.00 0.00 80 1016.6
20260507075320 61 9 0.0 0.0 0.00 0.00 0.00 81 1016.6
20260507074830 61 9 0.0 0.0 0.00 0.00 0.00 81 1016.6
20260507074323 62 5 0.0 0.0 0.00 0.00 0.00 81 1016.5
20260507073831 62 5 0.0 0.0 0.00 0.00 0.00 80 1016.5
20260507073320 62 5 0.0 0.0 0.00 0.00 0.00 80 1016.6
20260507072829 62 9 0.0 0.0 0.00 0.00 0.00 80 1016.6
20260507072317 62 5 0.0 0.0 0.00 0.00 0.00 80 1016.6
20260507071831 62 5 0.0 0.0 0.00 0.00 0.00 80 1016.7
20260507071320 62 5 0.0 0.0 0.00 0.00 0.00 80 1016.6
20260507070829 63 5 0.0 0.0 0.00 0.00 0.00 79 1016.6
20260507070320 63 360 0.0 0.0 0.00 0.00 0.00 79 1016.6
20260507065827 63 360 0.0 0.0 0.00 0.00 0.00 78 1016.5
20260507065319 63 360 0.0 0.0 0.00 0.00 0.00 78 1016.5
20260507064829 63 360 0.0 0.0 0.00 0.00 0.00 77 1016.4
20260507064318 63 360 0.0 0.0 0.00 0.00 0.00 77 1016.4
20260507063827 63 360 0.0 0.0 0.00 0.00 0.00 76 1016.4
20260507063319 64 360 0.0 0.0 0.00 0.00 0.00 76 1016.4
20260507062828 64 360 0.0 0.0 0.00 0.00 0.00 76 1016.3
20260507062319 64 360 0.0 0.0 0.00 0.00 0.00 75 1016.3
20260507061828 64 360 0.0 0.0 0.00 0.00 0.00 76 1016.2
20260507061316 64 360 0.0 0.0 0.00 0.00 0.00 76 1016.3
20260507060829 64 360 0.0 0.0 0.00 0.00 0.00 76 1016.2
20260507060318 64 360 0.0 0.0 0.00 0.00 0.00 76 1016.2
20260507055828 65 360 0.0 0.0 0.00 0.00 0.00 75 1016.2
20260507055322 65 360 0.0 0.0 0.00 0.00 0.00 75 1016.2
20260507054835 65 360 0.0 0.0 0.00 0.00 0.00 75 1016.2
20260507054324 65 360 0.0 0.0 0.00 0.00 0.00 75 1016.3
20260507053834 65 360 0.0 0.0 0.00 0.00 0.00 75 1016.3
20260507053323 65 360 0.0 0.0 0.00 0.00 0.00 75 1016.2
20260507052836 65 360 0.0 0.0 0.00 0.00 0.00 74 1016.3
20260507052323 65 360 0.0 0.0 0.00 0.00 0.00 74 1016.2